Tracking 35237 objects as of 6-Sep-2026
HD Live streaming from Space Station
objects crossing your sky now

BURSTCUBE


BURSTCUBE is no longer on orbit


NORAD ID: 59562
Int'l Code: 1998-067WM
Launch date: November 20, 1998
Source: United States (US)
Launch site: TYURATAM MISSILE AND SPACE COMPLEX (TTMTR)
Decay date: 2024-09-17
Your satellite tracking list
Your tracking list is empty




NASA's NSSDC Master Catalog

Two Line Element Set (TLE):
1 59562U 98067WM  24261.07242775  .12893912  12398-4  84217-3 0  9993
2 59562  51.5976 199.5694 0003027 241.4081 118.6642 16.40856488 23819
Source of the keplerian elements: AFSPC